This demonstration page uses our WeatherBlox Daily Observations layout. Learn more.

Left ArrowRight Arrow

Hourly Observations for June 22, 2019

Temp ( °F °C ) Dew Point ( °F °C ) Humidity (%) Winds ( mph kmh ) Pressure ( in mb ) Visibility ( mi km ) Precip ( " mm )
12:56 am 00:56 Mostly Clear 70 21 64 18 83 83 NNE 7 11 29.78 1008 10 16 0.00 0.00
1:56 am 01:56 Partly Cloudy 70 21 64 18 83 83 ENE 7 11 29.78 1008 10 16 0.00 0.00
2:56 am 02:56 Mostly Cloudy 70 21 64 18 83 83 ENE 7 11 29.78 1008 10 16 0.00 0.00
3:56 am 03:56 Cloudy 70 21 64 18 83 83 ESE 5 7 29.79 1009 10 16 0.00 0.00
4:56 am 04:56 Mostly Cloudy with Mist and Fog 70 21 64 18 83 83 E 6 9 29.77 1008 7 11 0.00 0.00
5:56 am 05:56 Mostly Cloudy with Mist and Fog 68 20 63 17 83 83 NNE 3 6 29.79 1009 9 14 0.00 0.00
6:56 am 06:56 Mostly Cloudy 68 20 64 18 88 88 NE 3 6 29.84 1010 7 11 0.00 0.00
7:26 am 07:26 Cloudy with Thunderstorms 70 21 64 18 83 83 SSE 6 9 29.89 1012 7 11 0.00 0.00
7:56 am 07:56 Cloudy with Thunderstorms 68 20 64 18 88 88 SW 5 7 29.88 1012 4 6 0.12 3.05
8:10 am 08:10 Cloudy with Showers 66 19 64 18 94 94 Calm 29.87 1011 6 10 0.00 0.00
8:56 am 08:56 Partly Cloudy with Light Rain 68 20 64 18 88 88 Calm 29.85 1011 7 11 0.02 0.51
9:56 am 09:56 Mostly Cloudy 70 21 64 18 83 83 E 8 13 29.75 1007 7 11 0.00 0.00
10:56 am 10:56 Cloudy 72 22 64 18 78 78 ENE 9 15 29.76 1008 7 11 0.00 0.00
11:56 am 11:56 Cloudy 77 25 64 18 65 65 SSE 5 7 29.80 1009 7 11 0.00 0.00
12:56 pm 12:56 Mostly Cloudy 79 26 64 18 61 61 E 7 11 29.81 1010 7 11 0.00 0.00
1:56 pm 13:56 Mostly Cloudy 79 26 64 18 61 61 SE 7 11 29.81 1010 7 11 0.00 0.00
2:56 pm 14:56 Mostly Cloudy 81 27 64 18 58 58 SSE 9 15 29.83 1010 7 11 0.00 0.00
3:56 pm 15:56 Mostly Cloudy 79 26 64 18 61 61 S 5 7 29.83 1010 10 16 0.00 0.00
4:56 pm 16:56 Mostly Sunny 82 28 66 19 58 58 ENE 8 13 29.81 1009 10 16 0.00 0.00
5:56 pm 17:56 Mostly Sunny 82 28 66 19 58 58 E 6 9 29.73 1007 10 16 0.00 0.00
6:56 pm 18:56 Mostly Sunny 81 27 66 19 62 62 E 8 13 29.74 1007 10 16 0.00 0.00
7:56 pm 19:56 Mostly Sunny 81 27 66 19 62 62 E 6 9 29.73 1007 10 16 0.00 0.00
8:56 pm 20:56 Mostly Cloudy 79 26 68 20 70 70 NE 7 11 29.73 1007 10 16 0.00 0.00
9:42 pm 21:42 Mostly Cloudy with Rain 77 25 70 21 79 79 E 9 15 29.74 1007 4 6 0.00 0.00
9:56 pm 21:56 Mostly Cloudy with Light Rain 75 24 68 20 78 78 ESE 12 19 29.70 1006 8 13 0.03 0.76
10:56 pm 22:56 Partly Cloudy 72 22 68 20 88 88 E 8 13 29.73 1007 10 16 0.00 0.00
11:17 pm 23:17 Cloudy with Light Rain 72 22 66 19 83 83 Calm 29.74 1007 6 10 0.00 0.00
11:56 pm 23:56 Mostly Cloudy 72 22 66 19 83 83 NNW 6 9 29.79 1009 7 11 0.00 0.00

Powered by AerisWeather